User: anonymous   Login
Location: Carrières
(48.9495°N, 2.0407°E)
Time: 13:25:20
(UTC+00:00)
Language:

Cosmos 676 Rocket - Orbit

View from above orbital plane
View from above orbital plane
View from above satellite
View from above satellite

Ground track
Ground track

The orbit data is extracted from the following two-line orbital elements,

1  7434U 74071B   24113.88603844  .00000975  00000-0  33438-3 0  9994
2  7434  74.0447 298.3326 0021142 309.1620  50.7654 14.37400314596015
Epoch (UTC): 22 April 2024 21:15:53
Eccentricity: 0.0021142
inclination: 74.0447°
perigee height: 752 km
apogee height: 782 km
right ascension of ascending node: 298.3326°
argument of perigee: 309.1620°
revolutions per day: 14.37400314
mean anomaly at epoch: 50.7654°
orbit number at epoch: 59601

The dashed part of the orbit path shows where the satellite is in the earth's shadow,  

DLR